If you wish to contribute or participate in the discussions about articles you are invited to join SKYbrary as a registered user

 Actions

Armilla Airport

From SKYbrary Wiki

LEGA
Airport
ICAO: LEGA
Summary
Name Armilla Airport
Region Europe
Territory Spain ES.gif
Location , Andalucia
Serving Granada
Elevation 700.126 m
2,297 ft
2,297 ft700.126 m
Type medium airport
Coordinates 37° 7' 59.60" N, 3° 38' 8.50" W
Runways
Designator Length Width Surface ROPS
18/36 1300 m4,265.092 ft
30 m98.425 ft
ASP /


METAR
Observation LEGA 160500Z 16005KT CAVOK 19/11 Q1016
Station Granada / Armilla
Date/Time 16 July 2019 05:00:00
Wind direction 160°
Wind speed 05 kts
Lowest cloud amount clouds and visibility OK
Temperature 19°C
Dew point 11°C
Humidity 59%
QNH 1016 hPa
Weather condition n/a